EW9043 Weather Reports


Display with metric or nautical units.
time (UTC)temp
F
wind
direction
speed
MPH
gust
MPH
rain 1hr
in
rain 24hr
in
rain mn
in
humidity
%
barometer
mb
20180921230640 75 224 4.0 0.0 0.00 0.00 0.00 52 1012.6
20180921225139 74 244 0.0 0.0 0.00 0.00 0.00 52 1012.8
20180921223637 75 250 3.0 0.0 0.00 0.00 0.00 52 1012.9
20180921222137 74 283 2.0 0.0 0.00 0.00 0.00 53 1012.9
20180921220634 74 283 0.0 0.0 0.00 0.00 0.00 53 1013.0
20180921215131 75 282 2.0 0.0 0.00 0.00 0.00 52 1013.1
20180921213633 75 282 0.0 0.0 0.00 0.00 0.00 52 1013.1
20180921212129 74 293 2.0 0.0 0.00 0.00 0.00 56 1013.2
20180921210628 73 308 3.0 0.0 0.00 0.00 0.00 59 1013.0
20180921205132 73 321 3.0 0.0 0.00 0.00 0.00 59 1012.9
20180921203628 74 321 2.0 0.0 0.00 0.00 0.00 57 1012.8
20180921202128 75 321 2.0 0.0 0.00 0.00 0.00 57 1012.8
20180921200627 74 320 0.0 0.0 0.00 0.00 0.00 62 1012.9
20180921195127 73 320 0.0 0.0 0.00 0.00 0.00 64 1012.9
20180921193625 75 320 2.0 0.0 0.00 0.00 0.00 60 1012.7
20180921192128 75 321 2.0 0.0 0.00 0.00 0.00 59 1012.7
20180921190625 75 321 1.0 0.0 0.00 0.00 0.00 60 1012.7
20180921185125 75 321 0.0 0.0 0.00 0.00 0.00 60 1012.6
20180921183626 75 321 0.0 0.0 0.00 0.00 0.00 60 1012.5
20180921182124 75 320 2.0 0.0 0.00 0.00 0.00 60 1012.3
20180921180623 76 320 0.0 0.0 0.00 0.00 0.00 61 1012.3
20180921175123 77 321 0.0 0.0 0.00 0.00 0.00 58 1012.2
20180921173623 78 321 0.0 0.0 0.00 0.00 0.00 58 1012.0
20180921172124 79 321 0.0 0.0 0.00 0.00 0.00 56 1011.8
20180921170623 80 321 0.0 0.0 0.00 0.00 0.00 53 1011.9
20180921165124 81 321 0.0 0.0 0.00 0.00 0.00 50 1011.8
20180921163620 82 320 0.0 0.0 0.00 0.00 0.00 49 1011.8
20180921162125 83 320 0.0 0.0 0.00 0.00 0.00 48 1012.1
20180921160619 83 320 0.0 0.0 0.00 0.00 0.00 47 1012.0
20180921155117 83 321 1.0 0.0 0.00 0.00 0.00 47 1012.1
20180921153617 83 321 1.0 0.0 0.00 0.00 0.00 47 1012.2
20180921152116 84 321 0.0 0.0 0.00 0.00 0.00 47 1012.3
20180921150612 84 321 1.0 0.0 0.00 0.00 0.00 46 1012.4
20180921145111 84 321 0.0 0.0 0.00 0.00 0.00 46 1012.6
20180921143613 84 321 0.0 0.0 0.00 0.00 0.00 46 1012.6
20180921142107 84 320 1.0 0.0 0.00 0.00 0.00 45 1012.8
20180921140605 84 321 0.0 0.0 0.00 0.00 0.00 45 1012.9
20180921135104 83 321 1.0 0.0 0.00 0.00 0.00 46 1013.0
20180921133603 84 320 0.0 0.0 0.00 0.00 0.00 46 1013.0
20180921132101 83 320 3.0 0.0 0.00 0.00 0.00 48 1013.0
20180921130600 83 307 2.0 0.0 0.00 0.00 0.00 49 1013.1
20180921125057 83 305 1.0 0.0 0.00 0.00 0.00 48 1013.3
20180921123554 82 315 2.0 0.0 0.00 0.00 0.00 48 1013.4
20180921122053 82 314 1.0 0.0 0.00 0.00 0.00 49 1013.6
20180921120554 82 314 1.0 0.0 0.00 0.00 0.00 52 1013.7
20180921115055 82 314 2.0 0.0 0.00 0.00 0.00 49 1013.9
20180921113550 81 318 2.0 0.0 0.00 0.00 0.00 52 1014.0
20180921112043 81 323 1.0 0.0 0.00 0.00 0.00 54 1014.2
20180921110544 81 322 2.0 0.0 0.00 0.00 0.00 52 1014.3
20180921105044 80 321 2.0 0.0 0.00 0.00 0.00 54 1014.4
20180921103536 80 321 1.0 0.0 0.00 0.00 0.00 56 1014.5
20180921102055 80 326 2.0 0.0 0.00 0.00 0.00 55 1014.5
20180921100534 79 328 2.0 0.0 0.00 0.00 0.00 56 1014.6
20180921095038 80 331 0.0 0.0 0.00 0.00 0.00 56 1014.8
20180921093531 79 332 0.0 0.0 0.00 0.00 0.00 59 1014.7
20180921092026 77 332 1.0 0.0 0.00 0.00 0.00 62 1014.8
20180921090526 76 332 0.0 0.0 0.00 0.00 0.00 63 1014.9
20180921085025 76 333 0.0 0.0 0.00 0.00 0.00 64 1015.0
20180921083521 75 332 0.0 0.0 0.00 0.00 0.00 64 1015.0
20180921082021 75 333 0.0 0.0 0.00 0.00 0.00 66 1015.1
20180921080519 75 334 0.0 0.0 0.00 0.00 0.00 66 1015.1
20180921075019 74 333 0.0 0.0 0.00 0.00 0.00 68 1015.1
20180921073516 73 333 1.0 0.0 0.00 0.00 0.00 69 1015.1
20180921072024 74 334 0.0 0.0 0.00 0.00 0.00 67 1015.2
20180921070512 72 333 0.0 0.0 0.00 0.00 0.00 72 1015.2
20180921065011 70 334 0.0 0.0 0.00 0.00 0.00 75 1015.1
20180921063511 68 332 0.0 0.0 0.00 0.00 0.00 77 1015.2
20180921062009 69 335 0.0 0.0 0.00 0.00 0.00 77 1015.1
20180921060513 68 335 0.0 0.0 0.00 0.00 0.00 77 1015.1
20180921055013 67 287 2.0 0.0 0.00 0.00 0.00 78 1015.1
20180921053509 67 287 0.0 0.0 0.00 0.00 0.00 78 1015.1
20180921052011 66 287 0.0 0.0 0.00 0.00 0.00 78 1015.0
20180921050508 66 287 0.0 0.0 0.00 0.00 0.00 79 1014.9
20180921045008 66 287 0.0 0.0 0.00 0.00 0.00 80 1014.8
20180921043507 66 287 0.0 0.0 0.00 0.00 0.00 79 1014.9
20180921042008 65 287 0.0 0.0 0.00 0.00 0.00 81 1014.8
20180921040507 65 287 0.0 0.0 0.00 0.00 0.00 81 1014.7
20180921035004 65 287 0.0 0.0 0.00 0.00 0.00 82 1014.8
20180921033503 65 287 0.0 0.0 0.00 0.00 0.00 81 1014.8
20180921032007 65 287 0.0 0.0 0.00 0.00 0.00 81 1014.9
20180921030503 65 287 0.0 0.0 0.00 0.00 0.00 80 1015.0
20180921024956 66 287 0.0 0.0 0.00 0.00 0.00 78 1015.1
20180921023454 69 287 0.0 0.0 0.00 0.00 0.00 74 1014.9
20180921021951 69 287 0.0 0.0 0.00 0.00 0.00 73 1015.1
20180921020454 69 287 0.0 0.0 0.00 0.00 0.00 73 1015.1
20180921014953 70 287 0.0 0.0 0.00 0.00 0.00 71 1015.1
20180921013448 69 287 0.0 0.0 0.00 0.00 0.00 72 1015.2
20180921011948 69 287 0.0 0.0 0.00 0.00 0.00 72 1015.2
20180921010447 69 287 2.0 0.0 0.00 0.00 0.00 72 1015.3
20180921004945 69 287 0.0 0.0 0.00 0.00 0.00 73 1015.4
20180921003447 69 287 0.0 0.0 0.00 0.00 0.00 74 1015.4
20180921001944 68 287 2.0 0.0 0.00 0.00 0.00 76 1015.5
20180921000445 68 287 0.0 0.0 0.00 0.00 0.00 77 1015.5
20180920234940 69 287 0.0 0.0 0.00 0.00 0.00 75 1015.6
20180920233437 72 287 0.0 0.0 0.00 0.00 0.00 70 1015.7
20180920231939 71 287 0.0 0.0 0.00 0.00 0.00 71 1015.7